{"data":{"norad_id":60411,"epoch":"2026-09-21T17:28:23.240928Z","epoch_age_seconds":79455,"freshness":"FRESH","line1":"1 60411U 24141P   26264.72804677  .00000567  00000+0  30037-4 0  9999","line2":"2 60411  53.1618  50.6859 0001186  84.6307 275.4830 15.31697973119613","mean_motion":15.31697973,"eccentricity":0.0001186,"inclination_deg":53.1618,"raan_deg":50.6859,"arg_perigee_deg":84.6307,"mean_anomaly_deg":275.483,"bstar":3.0037e-5,"rev_number":11961,"period_min":94.013312375128,"perigee_km":469.93376008557,"apogee_km":471.5583151421,"semimajor_km":6848.8830376138,"source":"CELESTRAK","updated_at":"2026-09-22T09:00:49.231439Z"}}